| time (UTC) | temp C | wind direction | speed KPH | gust KPH | rain 1hr cm | rain 24hr cm | rain mn cm | humidity % | barometer mb |
| 20260508065011 | 12 | 360 | 0.0 | 4.8 | 0.00 | 0.00 | 0.00 | 75 | 1016.0 |
| 20260508064534 | 12 | 360 | 1.6 | 4.8 | 0.00 | 0.00 | 0.00 | 77 | 1016.0 |
| 20260508064015 | 11 | 0 | 0.0 | 4.8 | 0.00 | 0.00 | 0.00 | 79 | 1016.1 |
| 20260508063510 | 11 | 0 | 0.0 | 8.0 | 0.00 | 0.00 | 0.00 | 80 | 1016.1 |
| 20260508063029 | 11 | 0 | 0.0 | 8.0 | 0.00 | 0.00 | 0.00 | 81 | 1016.0 |
| 20260508062513 | 11 | 0 | 1.6 | 8.0 | 0.00 | 0.00 | 0.00 | 82 | 1016.0 |
| 20260508062013 | 10 | 0 | 0.0 | 4.8 | 0.00 | 0.00 | 0.00 | 83 | 1015.9 |
| 20260508061530 | 10 | 0 | 0.0 | 4.8 | 0.00 | 0.00 | 0.00 | 84 | 1015.8 |
| 20260508061012 | 10 | 360 | 0.0 | 3.2 | 0.00 | 0.00 | 0.00 | 84 | 1015.8 |
| 20260508060513 | 10 | 360 | 0.0 | 3.2 | 0.00 | 0.00 | 0.00 | 84 | 1015.8 |
| 20260508060032 | 9 | 0 | 0.0 | 3.2 | 0.00 | 0.00 | 0.00 | 85 | 1015.8 |
| 20260508055511 | 9 | 0 | 0.0 | 3.2 | 0.00 | 0.00 | 0.00 | 85 | 1015.8 |
| 20260508055012 | 9 | 360 | 0.0 | 3.2 | 0.00 | 0.00 | 0.00 | 85 | 1015.8 |
| 20260508054531 | 9 | 0 | 0.0 | 1.6 | 0.00 | 0.00 | 0.00 | 85 | 1015.7 |
| 20260508054011 | 9 | 0 | 0.0 | 1.6 | 0.00 | 0.00 | 0.00 | 86 | 1015.7 |
| 20260508053509 | 9 | 0 | 0.0 | 0.0 | 0.00 | 0.00 | 0.00 | 86 | 1015.6 |
| 20260508053031 | 8 | 0 | 0.0 | 0.0 | 0.00 | 0.00 | 0.00 | 86 | 1015.6 |
| 20260508052510 | 8 | 0 | 0.0 | 0.0 | 0.00 | 0.00 | 0.00 | 86 | 1015.6 |
| 20260508052012 | 8 | 0 | 0.0 | 0.0 | 0.00 | 0.00 | 0.00 | 87 | 1015.5 |
| 20260508051530 | 8 | 0 | 0.0 | 0.0 | 0.00 | 0.00 | 0.00 | 87 | 1015.5 |
| 20260508051011 | 8 | 0 | 0.0 | 3.2 | 0.00 | 0.00 | 0.00 | 87 | 1015.5 |
| 20260508050512 | 8 | 0 | 0.0 | 3.2 | 0.00 | 0.00 | 0.00 | 87 | 1015.5 |
| 20260508050030 | 8 | 0 | 0.0 | 3.2 | 0.00 | 0.00 | 0.00 | 86 | 1015.4 |
| 20260508045511 | 8 | 0 | 0.0 | 0.0 | 0.00 | 0.00 | 0.00 | 86 | 1015.4 |
| 20260508045011 | 8 | 0 | 0.0 | 0.0 | 0.00 | 0.00 | 0.00 | 86 | 1015.4 |
| 20260508044530 | 8 | 0 | 0.0 | 0.0 | 0.00 | 0.00 | 0.00 | 86 | 1015.4 |
| 20260508044013 | 8 | 0 | 0.0 | 0.0 | 0.00 | 0.00 | 0.00 | 86 | 1015.4 |
| 20260508043512 | 8 | 0 | 0.0 | 0.0 | 0.00 | 0.00 | 0.00 | 86 | 1015.3 |
| 20260508043049 | 8 | 0 | 0.0 | 0.0 | 0.00 | 0.00 | 0.00 | 85 | 1015.3 |
| 20260508042509 | 8 | 0 | 0.0 | 0.0 | 0.00 | 0.00 | 0.00 | 85 | 1015.4 |
| 20260508042012 | 9 | 0 | 0.0 | 0.0 | 0.00 | 0.00 | 0.00 | 85 | 1015.4 |
| 20260508041534 | 9 | 0 | 0.0 | 0.0 | 0.00 | 0.00 | 0.00 | 85 | 1015.3 |
| 20260508041010 | 9 | 0 | 0.0 | 0.0 | 0.00 | 0.00 | 0.00 | 85 | 1015.3 |
| 20260508040511 | 9 | 0 | 0.0 | 0.0 | 0.00 | 0.00 | 0.00 | 84 | 1015.3 |
| 20260508040031 | 9 | 0 | 0.0 | 3.2 | 0.00 | 0.00 | 0.00 | 84 | 1015.4 |
| 20260508035514 | 9 | 0 | 0.0 | 3.2 | 0.00 | 0.00 | 0.00 | 84 | 1015.3 |
| 20260508035011 | 9 | 360 | 0.0 | 4.8 | 0.00 | 0.00 | 0.00 | 84 | 1015.2 |
| 20260508034530 | 9 | 0 | 0.0 | 4.8 | 0.00 | 0.00 | 0.00 | 84 | 1015.2 |
| 20260508034012 | 9 | 360 | 0.0 | 3.2 | 0.00 | 0.00 | 0.00 | 84 | 1015.3 |
| 20260508033514 | 9 | 360 | 0.0 | 3.2 | 0.00 | 0.00 | 0.00 | 84 | 1015.3 |
| 20260508033031 | 10 | 0 | 0.0 | 3.2 | 0.00 | 0.00 | 0.00 | 84 | 1015.2 |
| 20260508032512 | 10 | 360 | 0.0 | 3.2 | 0.00 | 0.00 | 0.00 | 84 | 1015.3 |
| 20260508032013 | 10 | 360 | 0.0 | 3.2 | 0.00 | 0.00 | 0.00 | 83 | 1015.3 |
| 20260508031528 | 10 | 0 | 0.0 | 3.2 | 0.00 | 0.00 | 0.00 | 83 | 1015.2 |
| 20260508031013 | 10 | 0 | 0.0 | 4.8 | 0.00 | 0.00 | 0.00 | 82 | 1015.3 |
| 20260508030515 | 10 | 0 | 0.0 | 4.8 | 0.00 | 0.00 | 0.00 | 82 | 1015.3 |
| 20260508030042 | 10 | 360 | 0.0 | 4.8 | 0.00 | 0.00 | 0.00 | 82 | 1015.3 |
| 20260508025514 | 10 | 0 | 0.0 | 0.0 | 0.00 | 0.00 | 0.00 | 82 | 1015.2 |
| 20260508025009 | 10 | 0 | 0.0 | 0.0 | 0.00 | 0.00 | 0.00 | 81 | 1015.2 |
| 20260508024534 | 10 | 0 | 0.0 | 0.0 | 0.00 | 0.00 | 0.00 | 81 | 1015.2 |
| 20260508024012 | 10 | 0 | 0.0 | 0.0 | 0.00 | 0.00 | 0.00 | 80 | 1015.2 |
| 20260508023512 | 10 | 0 | 0.0 | 1.6 | 0.00 | 0.00 | 0.00 | 80 | 1015.2 |
| 20260508023030 | 10 | 0 | 0.0 | 3.2 | 0.00 | 0.00 | 0.00 | 80 | 1015.2 |
| 20260508022511 | 10 | 0 | 0.0 | 3.2 | 0.00 | 0.00 | 0.00 | 80 | 1015.1 |
| 20260508022013 | 10 | 0 | 0.0 | 1.6 | 0.00 | 0.00 | 0.00 | 79 | 1015.1 |
| 20260508021532 | 10 | 360 | 0.0 | 1.6 | 0.00 | 0.00 | 0.00 | 79 | 1015.1 |
| 20260508021010 | 10 | 0 | 0.0 | 3.2 | 0.00 | 0.00 | 0.00 | 79 | 1015.3 |
| 20260508020514 | 10 | 0 | 0.0 | 4.8 | 0.00 | 0.00 | 0.00 | 79 | 1015.2 |
| 20260508020027 | 10 | 0 | 0.0 | 4.8 | 0.00 | 0.00 | 0.00 | 79 | 1015.2 |
| 20260508015511 | 10 | 360 | 0.0 | 4.8 | 0.00 | 0.00 | 0.00 | 79 | 1015.2 |
| 20260508015011 | 10 | 360 | 1.6 | 4.8 | 0.00 | 0.00 | 0.00 | 79 | 1015.1 |
| 20260508014529 | 10 | 0 | 1.6 | 8.0 | 0.00 | 0.00 | 0.00 | 79 | 1015.2 |
| 20260508014014 | 10 | 360 | 1.6 | 8.0 | 0.00 | 0.00 | 0.00 | 80 | 1015.2 |
| 20260508013514 | 10 | 360 | 0.0 | 4.8 | 0.00 | 0.00 | 0.00 | 80 | 1015.2 |
| 20260508013031 | 10 | 0 | 0.0 | 4.8 | 0.00 | 0.00 | 0.00 | 80 | 1015.1 |
| 20260508012513 | 10 | 360 | 0.0 | 4.8 | 0.00 | 0.00 | 0.00 | 80 | 1015.1 |
| 20260508012012 | 10 | 0 | 0.0 | 3.2 | 0.00 | 0.00 | 0.00 | 80 | 1015.3 |
| 20260508011530 | 10 | 0 | 0.0 | 3.2 | 0.00 | 0.00 | 0.00 | 80 | 1015.2 |
| 20260508011009 | 10 | 0 | 0.0 | 3.2 | 0.00 | 0.00 | 0.00 | 80 | 1015.2 |
| 20260508010511 | 10 | 0 | 0.0 | 6.4 | 0.00 | 0.00 | 0.00 | 80 | 1015.2 |
| 20260508010030 | 10 | 0 | 0.0 | 6.4 | 0.00 | 0.00 | 0.00 | 80 | 1015.2 |
| 20260508005515 | 10 | 360 | 0.0 | 3.2 | 0.00 | 0.00 | 0.00 | 80 | 1015.2 |
| 20260508005012 | 10 | 0 | 0.0 | 3.2 | 0.00 | 0.00 | 0.00 | 80 | 1015.1 |
| 20260508004529 | 10 | 0 | 0.0 | 3.2 | 0.00 | 0.00 | 0.00 | 79 | 1015.2 |
| 20260508004017 | 10 | 0 | 0.0 | 3.2 | 0.00 | 0.00 | 0.00 | 79 | 1015.2 |
| 20260508003509 | 10 | 0 | 0.0 | 3.2 | 0.00 | 0.00 | 0.00 | 79 | 1015.2 |
| 20260508003030 | 10 | 0 | 0.0 | 0.0 | 0.00 | 0.00 | 0.00 | 79 | 1015.2 |
| 20260508002511 | 10 | 0 | 0.0 | 1.6 | 0.00 | 0.00 | 0.00 | 78 | 1015.2 |
| 20260508002011 | 11 | 0 | 0.0 | 3.2 | 0.00 | 0.00 | 0.00 | 78 | 1015.2 |
| 20260508001528 | 11 | 0 | 0.0 | 3.2 | 0.00 | 0.00 | 0.00 | 78 | 1015.2 |
| 20260508001011 | 11 | 0 | 0.0 | 4.8 | 0.00 | 0.00 | 0.00 | 78 | 1015.1 |
| 20260508000517 | 10 | 360 | 0.0 | 4.8 | 0.00 | 0.00 | 0.00 | 78 | 1015.1 |
| 20260508000029 | 10 | 360 | 0.0 | 4.8 | 0.00 | 0.00 | 0.00 | 77 | 1015.2 |
| 20260507235510 | 11 | 0 | 0.0 | 1.6 | 0.00 | 0.00 | 0.00 | 77 | 1015.2 |
| 20260507235009 | 11 | 0 | 0.0 | 0.0 | 0.00 | 0.00 | 0.00 | 77 | 1015.2 |
| 20260507234535 | 11 | 0 | 0.0 | 0.0 | 0.00 | 0.00 | 0.00 | 77 | 1015.3 |
| 20260507234008 | 11 | 0 | 0.0 | 1.6 | 0.00 | 0.00 | 0.00 | 77 | 1015.3 |
| 20260507233511 | 11 | 0 | 0.0 | 1.6 | 0.00 | 0.00 | 0.00 | 77 | 1015.3 |
| 20260507233031 | 11 | 0 | 0.0 | 1.6 | 0.00 | 0.00 | 0.00 | 77 | 1015.2 |
| 20260507232511 | 11 | 360 | 0.0 | 1.6 | 0.00 | 0.00 | 0.00 | 77 | 1015.3 |
| 20260507232012 | 11 | 0 | 0.0 | 1.6 | 0.00 | 0.00 | 0.00 | 76 | 1015.3 |
| 20260507231530 | 11 | 0 | 0.0 | 1.6 | 0.00 | 0.00 | 0.00 | 76 | 1015.2 |
| 20260507231011 | 11 | 0 | 0.0 | 1.6 | 0.00 | 0.00 | 0.00 | 76 | 1015.2 |
| 20260507230511 | 11 | 0 | 0.0 | 3.2 | 0.00 | 0.00 | 0.00 | 76 | 1015.2 |
| 20260507230029 | 11 | 0 | 0.0 | 4.8 | 0.00 | 0.00 | 0.00 | 76 | 1015.2 |
| 20260507225514 | 11 | 0 | 0.0 | 4.8 | 0.00 | 0.00 | 0.00 | 76 | 1015.1 |
| 20260507225012 | 11 | 0 | 0.0 | 1.6 | 0.00 | 0.00 | 0.00 | 75 | 1015.2 |
| 20260507224530 | 11 | 0 | 0.0 | 3.2 | 0.00 | 0.00 | 0.00 | 75 | 1015.3 |
| 20260507224011 | 11 | 0 | 0.0 | 3.2 | 0.00 | 0.00 | 0.00 | 75 | 1015.3 |
| 20260507223511 | 11 | 0 | 0.0 | 3.2 | 0.00 | 0.00 | 0.00 | 75 | 1015.4 |
| 20260507223028 | 11 | 360 | 0.0 | 3.2 | 0.00 | 0.00 | 0.00 | 74 | 1015.4 |
| 20260507222511 | 11 | 0 | 0.0 | 4.8 | 0.00 | 0.00 | 0.00 | 74 | 1015.4 |
| 20260507222014 | 11 | 0 | 0.0 | 4.8 | 0.00 | 0.00 | 0.00 | 73 | 1015.5 |
| 20260507221530 | 11 | 0 | 1.6 | 4.8 | 0.00 | 0.00 | 0.00 | 73 | 1015.4 |
| 20260507221012 | 11 | 0 | 1.6 | 4.8 | 0.00 | 0.00 | 0.00 | 73 | 1015.5 |
| 20260507220508 | 12 | 0 | 0.0 | 8.0 | 0.00 | 0.00 | 0.00 | 72 | 1015.5 |
| 20260507220028 | 12 | 360 | 1.6 | 8.0 | 0.00 | 0.00 | 0.00 | 72 | 1015.3 |
| 20260507215508 | 12 | 360 | 1.6 | 6.4 | 0.00 | 0.00 | 0.00 | 72 | 1015.3 |
| 20260507215009 | 12 | 360 | 1.6 | 6.4 | 0.00 | 0.00 | 0.00 | 71 | 1015.3 |
| 20260507214527 | 12 | 0 | 0.0 | 4.8 | 0.00 | 0.00 | 0.00 | 71 | 1015.3 |
| 20260507214009 | 12 | 360 | 0.0 | 3.2 | 0.00 | 0.00 | 0.00 | 71 | 1015.4 |
| 20260507213508 | 12 | 360 | 0.0 | 3.2 | 0.00 | 0.00 | 0.00 | 71 | 1015.4 |
| 20260507213029 | 12 | 360 | 0.0 | 3.2 | 0.00 | 0.00 | 0.00 | 70 | 1015.4 |
| 20260507212510 | 12 | 0 | 0.0 | 8.0 | 0.00 | 0.00 | 0.00 | 70 | 1015.4 |
| 20260507212009 | 12 | 360 | 1.6 | 8.0 | 0.00 | 0.00 | 0.00 | 70 | 1015.4 |
| 20260507211530 | 12 | 360 | 0.0 | 6.4 | 0.00 | 0.00 | 0.00 | 69 | 1015.3 |
| 20260507211011 | 12 | 0 | 0.0 | 8.0 | 0.00 | 0.00 | 0.00 | 69 | 1015.3 |
| 20260507210515 | 12 | 360 | 1.6 | 8.0 | 0.00 | 0.00 | 0.00 | 69 | 1015.3 |
| 20260507210028 | 12 | 360 | 0.0 | 4.8 | 0.00 | 0.00 | 0.00 | 69 | 1015.3 |
| 20260507205514 | 12 | 360 | 0.0 | 6.4 | 0.00 | 0.00 | 0.00 | 68 | 1015.3 |
| 20260507205012 | 12 | 360 | 0.0 | 6.4 | 0.00 | 0.00 | 0.00 | 68 | 1015.2 |
| 20260507204528 | 12 | 360 | 0.0 | 1.6 | 0.00 | 0.00 | 0.00 | 68 | 1015.2 |
| 20260507204008 | 12 | 0 | 0.0 | 4.8 | 0.00 | 0.00 | 0.00 | 68 | 1015.1 |
| 20260507203510 | 12 | 0 | 0.0 | 4.8 | 0.00 | 0.00 | 0.00 | 68 | 1015.1 |
| 20260507203028 | 12 | 360 | 0.0 | 4.8 | 0.00 | 0.00 | 0.00 | 67 | 1015.1 |
| 20260507202514 | 12 | 0 | 0.0 | 6.4 | 0.00 | 0.00 | 0.00 | 67 | 1015.1 |
| 20260507202012 | 12 | 360 | 0.0 | 6.4 | 0.00 | 0.00 | 0.00 | 66 | 1015.0 |
| 20260507201535 | 12 | 360 | 0.0 | 1.6 | 0.00 | 0.00 | 0.00 | 66 | 1014.9 |
| 20260507201010 | 12 | 0 | 0.0 | 4.8 | 0.00 | 0.00 | 0.00 | 66 | 1014.9 |
| 20260507200511 | 12 | 0 | 0.0 | 4.8 | 0.00 | 0.00 | 0.00 | 66 | 1014.8 |
| 20260507200034 | 12 | 0 | 0.0 | 4.8 | 0.00 | 0.00 | 0.00 | 66 | 1014.7 |
| 20260507195511 | 12 | 0 | 0.0 | 3.2 | 0.00 | 0.00 | 0.00 | 66 | 1014.6 |
| 20260507195012 | 13 | 0 | 0.0 | 3.2 | 0.00 | 0.00 | 0.00 | 65 | 1014.6 |
| 20260507194537 | 13 | 0 | 0.0 | 3.2 | 0.00 | 0.00 | 0.00 | 65 | 1014.6 |
| 20260507194012 | 13 | 0 | 0.0 | 3.2 | 0.00 | 0.00 | 0.00 | 64 | 1014.5 |
| 20260507193512 | 13 | 360 | 0.0 | 3.2 | 0.00 | 0.00 | 0.00 | 64 | 1014.5 |
| 20260507193032 | 13 | 0 | 0.0 | 4.8 | 0.00 | 0.00 | 0.00 | 64 | 1014.4 |
| 20260507192510 | 13 | 360 | 0.0 | 8.0 | 0.00 | 0.00 | 0.00 | 63 | 1014.4 |
| 20260507192014 | 13 | 360 | 1.6 | 8.0 | 0.00 | 0.00 | 0.00 | 63 | 1014.4 |
| 20260507191534 | 13 | 360 | 0.0 | 8.0 | 0.00 | 0.00 | 0.00 | 62 | 1014.4 |
| 20260507191011 | 13 | 0 | 0.0 | 8.0 | 0.00 | 0.00 | 0.00 | 62 | 1014.3 |
| 20260507190510 | 13 | 360 | 0.0 | 6.4 | 0.00 | 0.00 | 0.00 | 61 | 1014.4 |
| 20260507190031 | 13 | 0 | 0.0 | 3.2 | 0.00 | 0.00 | 0.00 | 61 | 1014.3 |
| 20260507185511 | 13 | 0 | 0.0 | 3.2 | 0.00 | 0.00 | 0.00 | 61 | 1014.3 |
| 20260507185013 | 13 | 0 | 0.0 | 6.4 | 0.00 | 0.00 | 0.00 | 61 | 1014.2 |
| 20260507184532 | 13 | 360 | 0.0 | 6.4 | 0.00 | 0.00 | 0.00 | 61 | 1014.3 |
| 20260507184007 | 13 | 0 | 0.0 | 6.4 | 0.00 | 0.00 | 0.00 | 60 | 1014.3 |
| 20260507183510 | 13 | 0 | 0.0 | 6.4 | 0.00 | 0.00 | 0.00 | 60 | 1014.2 |
| 20260507183036 | 13 | 360 | 0.0 | 8.0 | 0.00 | 0.00 | 0.00 | 59 | 1014.2 |
| 20260507182510 | 13 | 360 | 0.0 | 8.0 | 0.00 | 0.00 | 0.00 | 59 | 1014.2 |
| 20260507182009 | 13 | 360 | 3.2 | 8.0 | 0.00 | 0.00 | 0.00 | 59 | 1014.0 |
| 20260507181528 | 13 | 0 | 0.0 | 8.0 | 0.00 | 0.00 | 0.00 | 59 | 1014.0 |
| 20260507181012 | 13 | 360 | 1.6 | 8.0 | 0.00 | 0.00 | 0.00 | 58 | 1014.0 |
| 20260507180510 | 13 | 360 | 1.6 | 8.0 | 0.00 | 0.00 | 0.00 | 58 | 1014.0 |
| 20260507180027 | 13 | 0 | 1.6 | 6.4 | 0.00 | 0.00 | 0.00 | 58 | 1014.0 |
| 20260507175510 | 14 | 360 | 1.6 | 14.5 | 0.00 | 0.00 | 0.00 | 57 | 1014.0 |
| 20260507175011 | 14 | 360 | 3.2 | 14.5 | 0.00 | 0.00 | 0.00 | 57 | 1014.0 |
| 20260507174533 | 14 | 360 | 1.6 | 6.4 | 0.00 | 0.00 | 0.00 | 56 | 1014.0 |
| 20260507174012 | 14 | 360 | 1.6 | 12.9 | 0.00 | 0.00 | 0.00 | 56 | 1014.0 |
| 20260507173511 | 14 | 360 | 3.2 | 12.9 | 0.00 | 0.00 | 0.00 | 55 | 1014.0 |
| 20260507173032 | 14 | 360 | 3.2 | 12.9 | 0.00 | 0.00 | 0.00 | 55 | 1013.9 |
| 20260507172511 | 14 | 0 | 4.8 | 9.7 | 0.00 | 0.00 | 0.00 | 55 | 1013.9 |
| 20260507172008 | 15 | 360 | 1.6 | 14.5 | 0.00 | 0.00 | 0.00 | 55 | 1014.0 |
| 20260507171531 | 15 | 360 | 3.2 | 16.1 | 0.00 | 0.00 | 0.00 | 54 | 1014.0 |
| 20260507171011 | 15 | 360 | 6.4 | 16.1 | 0.00 | 0.00 | 0.00 | 52 | 1014.0 |
| 20260507170510 | 15 | 360 | 1.6 | 9.7 | 0.00 | 0.00 | 0.00 | 52 | 1014.0 |
| 20260507170028 | 15 | 360 | 3.2 | 9.7 | 0.00 | 0.00 | 0.00 | 51 | 1014.1 |
| 20260507165511 | 15 | 360 | 1.6 | 8.0 | 0.00 | 0.00 | 0.00 | 52 | 1014.0 |
| 20260507165008 | 15 | 360 | 1.6 | 9.7 | 0.00 | 0.00 | 0.00 | 52 | 1014.1 |
| 20260507164531 | 15 | 360 | 1.6 | 9.7 | 0.00 | 0.00 | 0.00 | 53 | 1014.0 |
| 20260507164011 | 15 | 360 | 3.2 | 9.7 | 0.00 | 0.00 | 0.00 | 52 | 1014.1 |
| 20260507163509 | 15 | 360 | 3.2 | 9.7 | 0.00 | 0.00 | 0.00 | 52 | 1014.2 |
| 20260507163030 | 15 | 360 | 1.6 | 16.1 | 0.00 | 0.00 | 0.00 | 52 | 1014.1 |
| 20260507162511 | 15 | 360 | 8.0 | 16.1 | 0.00 | 0.00 | 0.00 | 50 | 1014.0 |
| 20260507162013 | 15 | 360 | 1.6 | 8.0 | 0.00 | 0.00 | 0.00 | 52 | 1014.1 |
| 20260507161528 | 15 | 360 | 1.6 | 14.5 | 0.00 | 0.00 | 0.00 | 51 | 1014.1 |
| 20260507161011 | 15 | 360 | 1.6 | 14.5 | 0.00 | 0.00 | 0.00 | 50 | 1014.0 |
| 20260507160514 | 15 | 360 | 6.4 | 14.5 | 0.00 | 0.00 | 0.00 | 49 | 1014.1 |
| 20260507160034 | 16 | 360 | 1.6 | 9.7 | 0.00 | 0.00 | 0.00 | 49 | 1014.1 |
| 20260507155515 | 16 | 360 | 1.6 | 4.8 | 0.00 | 0.00 | 0.00 | 49 | 1014.1 |
| 20260507155012 | 16 | 360 | 0.0 | 12.9 | 0.00 | 0.00 | 0.00 | 49 | 1014.0 |
| 20260507154530 | 16 | 360 | 3.2 | 12.9 | 0.00 | 0.00 | 0.00 | 49 | 1014.1 |
| 20260507154012 | 16 | 360 | 3.2 | 12.9 | 0.00 | 0.00 | 0.00 | 48 | 1014.2 |
| 20260507153511 | 17 | 360 | 3.2 | 8.0 | 0.00 | 0.00 | 0.00 | 46 | 1014.1 |
| 20260507153031 | 17 | 360 | 1.6 | 8.0 | 0.00 | 0.00 | 0.00 | 47 | 1014.2 |
| 20260507152512 | 17 | 360 | 0.0 | 6.4 | 0.00 | 0.00 | 0.00 | 47 | 1014.3 |
| 20260507152013 | 16 | 0 | 0.0 | 8.0 | 0.00 | 0.00 | 0.00 | 48 | 1014.3 |
| 20260507151528 | 16 | 360 | 3.2 | 9.7 | 0.00 | 0.00 | 0.00 | 47 | 1014.3 |
| 20260507151012 | 16 | 360 | 3.2 | 9.7 | 0.00 | 0.00 | 0.00 | 47 | 1014.4 |
| 20260507150516 | 16 | 360 | 1.6 | 12.9 | 0.00 | 0.00 | 0.00 | 50 | 1014.4 |
| 20260507150029 | 16 | 360 | 3.2 | 12.9 | 0.00 | 0.00 | 0.00 | 49 | 1014.4 |
| 20260507145509 | 16 | 360 | 4.8 | 12.9 | 0.00 | 0.00 | 0.00 | 47 | 1014.4 |
| 20260507145011 | 16 | 360 | 3.2 | 9.7 | 0.00 | 0.00 | 0.00 | 47 | 1014.4 |
| 20260507144528 | 17 | 360 | 1.6 | 14.5 | 0.00 | 0.00 | 0.00 | 46 | 1014.4 |
| 20260507144008 | 17 | 360 | 8.0 | 14.5 | 0.00 | 0.00 | 0.00 | 45 | 1014.4 |
| 20260507143511 | 17 | 360 | 3.2 | 9.7 | 0.00 | 0.00 | 0.00 | 45 | 1014.4 |
| 20260507143048 | 17 | 360 | 3.2 | 8.0 | 0.00 | 0.00 | 0.00 | 45 | 1014.5 |
| 20260507142508 | 17 | 360 | 0.0 | 12.9 | 0.00 | 0.00 | 0.00 | 48 | 1014.6 |
| 20260507142011 | 16 | 0 | 1.6 | 12.9 | 0.00 | 0.00 | 0.00 | 47 | 1014.6 |
| 20260507141539 | 16 | 360 | 1.6 | 9.7 | 0.00 | 0.00 | 0.00 | 50 | 1014.7 |
| 20260507141012 | 16 | 360 | 3.2 | 9.7 | 0.00 | 0.00 | 0.00 | 48 | 1014.7 |
| 20260507140510 | 16 | 360 | 0.0 | 12.9 | 0.00 | 0.00 | 0.00 | 48 | 1014.8 |
| 20260507140028 | 16 | 360 | 4.8 | 12.9 | 0.00 | 0.00 | 0.00 | 47 | 1014.9 |
| 20260507135510 | 16 | 360 | 3.2 | 8.0 | 0.00 | 0.00 | 0.00 | 47 | 1014.7 |
| 20260507135009 | 17 | 25 | 1.6 | 8.0 | 0.00 | 0.00 | 0.00 | 48 | 1014.9 |
| 20260507134530 | 17 | 0 | 0.0 | 8.0 | 0.00 | 0.00 | 0.00 | 48 | 1014.7 |
| 20260507134011 | 17 | 360 | 1.6 | 12.9 | 0.00 | 0.00 | 0.00 | 48 | 1015.0 |
| 20260507133512 | 16 | 360 | 3.2 | 12.9 | 0.00 | 0.00 | 0.00 | 48 | 1015.0 |
| 20260507133030 | 16 | 360 | 1.6 | 9.7 | 0.00 | 0.00 | 0.00 | 50 | 1015.1 |
| 20260507132511 | 16 | 360 | 3.2 | 9.7 | 0.00 | 0.00 | 0.00 | 51 | 1015.0 |
| 20260507132013 | 15 | 360 | 0.0 | 8.0 | 0.00 | 0.00 | 0.00 | 51 | 1014.9 |
| 20260507131532 | 15 | 0 | 1.6 | 8.0 | 0.00 | 0.00 | 0.00 | 52 | 1015.0 |
| 20260507131014 | 15 | 360 | 3.2 | 8.0 | 0.00 | 0.00 | 0.00 | 51 | 1015.0 |
| 20260507130508 | 15 | 360 | 1.6 | 8.0 | 0.00 | 0.00 | 0.00 | 52 | 1015.1 |
| 20260507130038 | 15 | 360 | 1.6 | 8.0 | 0.00 | 0.00 | 0.00 | 52 | 1015.1 |
| 20260507125511 | 15 | 360 | 1.6 | 8.0 | 0.00 | 0.00 | 0.00 | 51 | 1015.1 |
| 20260507125008 | 15 | 360 | 0.0 | 12.9 | 0.00 | 0.00 | 0.00 | 51 | 1015.1 |
| 20260507124530 | 16 | 360 | 0.0 | 12.9 | 0.00 | 0.00 | 0.00 | 51 | 1015.1 |
| 20260507124008 | 16 | 360 | 4.8 | 12.9 | 0.00 | 0.00 | 0.00 | 51 | 1015.1 |
| 20260507123511 | 15 | 0 | 1.6 | 8.0 | 0.00 | 0.00 | 0.00 | 52 | 1015.1 |
| 20260507123032 | 15 | 360 | 3.2 | 8.0 | 0.00 | 0.00 | 0.00 | 51 | 1015.1 |
| 20260507122509 | 15 | 360 | 1.6 | 9.7 | 0.00 | 0.00 | 0.00 | 52 | 1015.1 |
| 20260507122013 | 15 | 360 | 3.2 | 12.9 | 0.00 | 0.00 | 0.00 | 52 | 1015.0 |
| 20260507121528 | 15 | 360 | 3.2 | 12.9 | 0.00 | 0.00 | 0.00 | 52 | 1015.1 |
| 20260507121012 | 15 | 360 | 1.6 | 14.5 | 0.00 | 0.00 | 0.00 | 54 | 1015.1 |
| 20260507120508 | 15 | 360 | 1.6 | 14.5 | 0.00 | 0.00 | 0.00 | 52 | 1015.2 |
| 20260507120028 | 15 | 360 | 6.4 | 14.5 | 0.00 | 0.00 | 0.00 | 50 | 1015.2 |
| 20260507115508 | 16 | 360 | 1.6 | 8.0 | 0.00 | 0.00 | 0.00 | 47 | 1015.3 |
| 20260507115011 | 16 | 360 | 3.2 | 9.7 | 0.00 | 0.00 | 0.00 | 49 | 1015.3 |
| 20260507114529 | 16 | 211 | 0.0 | 12.9 | 0.00 | 0.00 | 0.00 | 51 | 1015.2 |
| 20260507114009 | 16 | 360 | 3.2 | 12.9 | 0.00 | 0.00 | 0.00 | 53 | 1015.2 |
| 20260507113509 | 15 | 360 | 1.6 | 8.0 | 0.00 | 0.00 | 0.00 | 53 | 1015.2 |
| 20260507113027 | 15 | 360 | 3.2 | 9.7 | 0.00 | 0.00 | 0.00 | 55 | 1015.3 |
| 20260507112511 | 16 | 360 | 1.6 | 9.7 | 0.00 | 0.00 | 0.00 | 55 | 1015.4 |
| 20260507112013 | 16 | 360 | 3.2 | 9.7 | 0.00 | 0.00 | 0.00 | 54 | 1015.4 |
| 20260507111529 | 16 | 360 | 0.0 | 12.9 | 0.00 | 0.00 | 0.00 | 52 | 1015.3 |
| 20260507111012 | 16 | 360 | 3.2 | 12.9 | 0.00 | 0.00 | 0.00 | 56 | 1015.3 |
| 20260507110509 | 15 | 360 | 1.6 | 14.5 | 0.00 | 0.00 | 0.00 | 57 | 1015.4 |
| 20260507110028 | 15 | 360 | 1.6 | 14.5 | 0.00 | 0.00 | 0.00 | 57 | 1015.4 |
| 20260507105508 | 15 | 360 | 8.0 | 14.5 | 0.00 | 0.00 | 0.00 | 54 | 1015.5 |
| 20260507105013 | 15 | 0 | 3.2 | 12.9 | 0.00 | 0.00 | 0.00 | 57 | 1015.6 |
| 20260507104530 | 15 | 360 | 3.2 | 9.7 | 0.00 | 0.00 | 0.00 | 59 | 1015.6 |
| 20260507104012 | 15 | 360 | 1.6 | 9.7 | 0.00 | 0.00 | 0.00 | 60 | 1015.6 |
| 20260507103509 | 14 | 360 | 1.6 | 16.1 | 0.00 | 0.00 | 0.00 | 61 | 1015.6 |
| 20260507103029 | 14 | 360 | 3.2 | 16.1 | 0.00 | 0.00 | 0.00 | 61 | 1015.7 |
| 20260507102510 | 14 | 360 | 6.4 | 16.1 | 0.00 | 0.00 | 0.00 | 60 | 1015.7 |
| 20260507102011 | 14 | 360 | 1.6 | 8.0 | 0.00 | 0.00 | 0.00 | 62 | 1015.7 |
| 20260507101530 | 14 | 360 | 1.6 | 9.7 | 0.00 | 0.00 | 0.00 | 61 | 1015.7 |
| 20260507101011 | 14 | 360 | 3.2 | 9.7 | 0.00 | 0.00 | 0.00 | 63 | 1015.9 |
| 20260507100511 | 14 | 360 | 1.6 | 16.1 | 0.00 | 0.00 | 0.00 | 64 | 1015.8 |
| 20260507100036 | 13 | 360 | 3.2 | 16.1 | 0.00 | 0.00 | 0.00 | 64 | 1015.9 |
| 20260507095510 | 13 | 360 | 3.2 | 12.9 | 0.00 | 0.00 | 0.00 | 65 | 1015.8 |
| 20260507095013 | 13 | 360 | 3.2 | 12.9 | 0.00 | 0.00 | 0.00 | 66 | 1015.8 |
| 20260507094531 | 13 | 360 | 3.2 | 12.9 | 0.00 | 0.00 | 0.00 | 66 | 1015.7 |
| 20260507094013 | 13 | 0 | 1.6 | 17.7 | 0.00 | 0.00 | 0.00 | 68 | 1015.8 |
| 20260507093511 | 12 | 360 | 1.6 | 17.7 | 0.00 | 0.00 | 0.00 | 69 | 1015.8 |
| 20260507093028 | 12 | 360 | 1.6 | 12.9 | 0.00 | 0.00 | 0.00 | 70 | 1015.8 |
| 20260507092509 | 12 | 360 | 4.8 | 14.5 | 0.00 | 0.00 | 0.00 | 68 | 1015.8 |
| 20260507092010 | 12 | 360 | 3.2 | 16.1 | 0.00 | 0.00 | 0.00 | 68 | 1015.9 |
| 20260507091534 | 12 | 360 | 1.6 | 16.1 | 0.00 | 0.00 | 0.00 | 70 | 1015.9 |
| 20260507091015 | 12 | 360 | 3.2 | 16.1 | 0.00 | 0.00 | 0.00 | 71 | 1015.9 |
| 20260507090508 | 12 | 360 | 3.2 | 14.5 | 0.00 | 0.00 | 0.00 | 72 | 1016.0 |
| 20260507090029 | 12 | 360 | 6.4 | 16.1 | 0.00 | 0.00 | 0.00 | 71 | 1016.0 |
| 20260507085510 | 12 | 360 | 3.2 | 16.1 | 0.00 | 0.00 | 0.00 | 71 | 1015.9 |
| 20260507085010 | 12 | 360 | 6.4 | 16.1 | 0.00 | 0.00 | 0.00 | 70 | 1016.0 |
| 20260507084531 | 12 | 121 | 3.2 | 14.5 | 0.00 | 0.00 | 0.00 | 71 | 1016.0 |
| 20260507084013 | 12 | 360 | 4.8 | 14.5 | 0.00 | 0.00 | 0.00 | 71 | 1015.9 |
| 20260507083509 | 12 | 0 | 0.0 | 12.9 | 0.00 | 0.00 | 0.00 | 71 | 1015.9 |
| 20260507083028 | 12 | 360 | 3.2 | 12.9 | 0.00 | 0.00 | 0.00 | 71 | 1016.0 |
| 20260507082508 | 12 | 360 | 3.2 | 12.9 | 0.00 | 0.00 | 0.00 | 72 | 1016.0 |
| 20260507082011 | 12 | 360 | 0.0 | 9.7 | 0.00 | 0.00 | 0.00 | 72 | 1015.8 |
| 20260507081529 | 11 | 360 | 3.2 | 9.7 | 0.00 | 0.00 | 0.00 | 72 | 1015.9 |
| 20260507081009 | 11 | 360 | 1.6 | 8.0 | 0.00 | 0.00 | 0.00 | 72 | 1016.0 |
| 20260507080513 | 11 | 360 | 1.6 | 8.0 | 0.00 | 0.00 | 0.00 | 73 | 1015.9 |
| 20260507080030 | 11 | 360 | 1.6 | 14.5 | 0.00 | 0.00 | 0.00 | 73 | 1015.9 |
| 20260507075509 | 11 | 360 | 1.6 | 14.5 | 0.00 | 0.00 | 0.00 | 73 | 1015.9 |
| 20260507075009 | 11 | 360 | 3.2 | 14.5 | 0.00 | 0.00 | 0.00 | 74 | 1015.9 |
| 20260507074528 | 11 | 360 | 1.6 | 8.0 | 0.00 | 0.00 | 0.00 | 75 | 1015.9 |
| 20260507074012 | 11 | 360 | 1.6 | 8.0 | 0.00 | 0.00 | 0.00 | 75 | 1015.8 |
| 20260507073510 | 11 | 360 | 1.6 | 8.0 | 0.00 | 0.00 | 0.00 | 76 | 1015.8 |
| 20260507073031 | 10 | 360 | 1.6 | 6.4 | 0.00 | 0.00 | 0.00 | 77 | 1015.8 |
| 20260507072510 | 10 | 0 | 0.0 | 12.9 | 0.00 | 0.00 | 0.00 | 78 | 1015.8 |
| 20260507072011 | 10 | 360 | 3.2 | 12.9 | 0.00 | 0.00 | 0.00 | 78 | 1015.7 |
| 20260507071534 | 9 | 360 | 1.6 | 8.0 | 0.00 | 0.00 | 0.00 | 80 | 1015.7 |
| 20260507071011 | 9 | 360 | 1.6 | 8.0 | 0.00 | 0.00 | 0.00 | 80 | 1015.6 |
| 20260507070509 | 8 | 360 | 4.8 | 9.7 | 0.00 | 0.00 | 0.00 | 81 | 1015.7 |
| 20260507070033 | 8 | 360 | 1.6 | 9.7 | 0.00 | 0.00 | 0.00 | 83 | 1015.8 |
| 20260507065509 | 8 | 0 | 1.6 | 8.0 | 0.00 | 0.00 | 0.00 | 84 | 1015.8 |